Time,TemperatureF,DewpointF,PressureIn,WindDirection,WindDirectionDegrees,WindSpeedMPH,WindSpeedGustMPH,Humidity,HourlyPrecipIn,Conditions,Clouds,dailyrainin,SoftwareType,DateUTC
2013-03-04 00:00:00,27.2,15.9,30.14,WNW,291,0.0,0.0,62,0.00,,,0.18,VWS V14.01,2013-03-04 06:00:00,
2013-03-04 00:05:00,27.2,15.9,30.14,WNW,291,0.0,0.0,62,0.00,,,0.00,VWS V14.01,2013-03-04 06:05:00,
2013-03-04 00:10:00,27.2,15.9,30.14,WNW,291,0.0,0.0,62,0.00,,,0.00,VWS V14.01,2013-03-04 06:10:00,
2013-03-04 00:15:00,27.2,15.9,30.14,WNW,291,0.0,0.0,62,0.00,,,0.00,VWS V14.01,2013-03-04 06:15:00,
2013-03-04 00:20:00,27.2,15.9,30.14,WNW,291,0.0,0.0,62,0.00,,,0.00,VWS V14.01,2013-03-04 06:20:00,
2013-03-04 00:25:00,27.3,16.0,30.14,WNW,291,0.0,0.0,62,0.00,,,0.00,VWS V14.01,2013-03-04 06:25:00,
2013-03-04 00:30:00,27.2,16.3,30.15,WNW,291,0.0,0.0,63,0.00,,,0.00,VWS V14.01,2013-03-04 06:30:00,
2013-03-04 00:35:00,27.1,16.9,30.15,WNW,291,0.0,0.0,65,0.00,,,0.00,VWS V14.01,2013-03-04 06:35:00,
2013-03-04 00:40:00,26.9,17.1,30.15,WNW,291,0.0,0.0,66,0.00,,,0.00,VWS V14.01,2013-03-04 06:40:00,
2013-03-04 00:45:00,26.8,17.0,30.15,WNW,291,0.0,0.0,66,0.00,,,0.00,VWS V14.01,2013-03-04 06:45:00,
2013-03-04 00:50:00,26.7,16.5,30.15,WNW,291,0.0,0.0,65,0.00,,,0.00,VWS V14.01,2013-03-04 06:50:00,
2013-03-04 00:55:00,26.6,16.1,30.14,WNW,291,0.0,0.0,64,0.00,,,0.00,VWS V14.01,2013-03-04 06:55:00,
2013-03-04 01:00:00,26.7,16.2,30.14,WNW,291,0.0,0.0,64,0.00,,,0.00,VWS V14.01,2013-03-04 07:00:00,
2013-03-04 01:05:00,26.7,15.8,30.15,WNW,291,0.0,0.0,63,0.00,,,0.00,VWS V14.01,2013-03-04 07:05:00,
2013-03-04 01:10:00,26.9,16.0,30.15,WNW,291,0.0,0.0,63,0.00,,,0.00,VWS V14.01,2013-03-04 07:10:00,
2013-03-04 01:15:00,27.2,15.6,30.15,WNW,291,0.0,0.0,61,0.00,,,0.00,VWS V14.01,2013-03-04 07:15:00,
2013-03-04 01:20:00,27.4,15.7,30.14,WNW,291,0.0,0.0,61,0.00,,,0.00,VWS V14.01,2013-03-04 07:20:00,
2013-03-04 01:25:00,27.7,16.0,30.14,WNW,291,0.0,0.0,61,0.00,,,0.00,VWS V14.01,2013-03-04 07:25:00,
2013-03-04 01:30:00,28.1,18.6,30.14,WNW,291,0.0,0.0,67,0.00,,,0.00,VWS V14.01,2013-03-04 07:30:00,
2013-03-04 01:35:00,28.1,16.4,30.15,WNW,291,0.0,0.0,61,0.00,,,0.00,VWS V14.01,2013-03-04 07:35:00,
2013-03-04 01:40:00,28.1,16.4,30.15,WNW,291,0.0,0.0,61,0.00,,,0.00,VWS V14.01,2013-03-04 07:40:00,
2013-03-04 01:45:00,28.2,16.1,30.15,WNW,291,0.0,0.0,60,0.00,,,0.00,VWS V14.01,2013-03-04 07:45:00,
2013-03-04 01:50:00,28.2,16.5,30.15,WNW,291,0.0,0.0,61,0.00,,,0.00,VWS V14.01,2013-03-04 07:50:00,
2013-03-04 01:55:00,28.2,16.5,30.15,WNW,291,0.0,0.0,61,0.00,,,0.00,VWS V14.01,2013-03-04 07:55:00,
2013-03-04 02:00:00,28.2,16.9,30.15,WNW,291,0.0,0.0,62,0.00,,,0.00,VWS V14.01,2013-03-04 08:00:00,
2013-03-04 02:05:00,28.2,16.5,30.15,WNW,291,0.0,0.0,61,0.00,,,0.00,VWS V14.01,2013-03-04 08:05:00,
2013-03-04 02:10:00,28.5,16.8,30.15,WNW,291,0.0,0.0,61,0.00,,,0.00,VWS V14.01,2013-03-04 08:10:00,
2013-03-04 02:15:00,28.7,17.3,30.15,WNW,291,0.0,0.0,62,0.00,,,0.00,VWS V14.01,2013-03-04 08:15:00,
2013-03-04 02:20:00,28.8,16.7,30.15,WNW,291,0.0,0.0,60,0.00,,,0.00,VWS V14.01,2013-03-04 08:20:00,
2013-03-04 02:25:00,28.9,17.2,30.15,WNW,291,0.0,0.0,61,0.00,,,0.00,VWS V14.01,2013-03-04 08:25:00,
2013-03-04 02:30:00,29.0,18.4,30.15,WNW,291,0.0,0.0,64,0.00,,,0.00,VWS V14.01,2013-03-04 08:30:00,
2013-03-04 02:35:00,29.1,18.8,30.15,WNW,291,0.0,0.0,65,0.00,,,0.00,VWS V14.01,2013-03-04 08:35:00,
2013-03-04 02:40:00,29.1,17.7,30.15,WNW,291,0.0,0.0,62,0.00,,,0.00,VWS V14.01,2013-03-04 08:40:00,
2013-03-04 02:45:00,29.2,17.8,30.15,WNW,291,0.0,0.0,62,0.00,,,0.00,VWS V14.01,2013-03-04 08:45:00,
2013-03-04 02:50:00,29.2,17.4,30.15,WNW,291,0.0,0.0,61,0.00,,,0.00,VWS V14.01,2013-03-04 08:50:00,
2013-03-04 02:55:00,29.2,18.2,30.15,WNW,291,0.0,0.0,63,0.00,,,0.00,VWS V14.01,2013-03-04 08:55:00,
2013-03-04 03:00:00,29.2,18.9,30.16,WNW,291,0.0,0.0,65,0.00,,,0.00,VWS V14.01,2013-03-04 09:00:00,
2013-03-04 03:05:00,29.2,20.6,30.16,WNW,291,0.0,0.0,70,0.00,,,0.00,VWS V14.01,2013-03-04 09:05:00,
2013-03-04 03:10:00,29.1,17.7,30.16,WNW,291,0.0,0.0,62,0.00,,,0.00,VWS V14.01,2013-03-04 09:10:00,
2013-03-04 03:15:00,29.1,17.3,30.16,WNW,291,0.0,0.0,61,0.00,,,0.00,VWS V14.01,2013-03-04 09:15:00,
2013-03-04 03:20:00,29.0,17.6,30.16,WNW,291,0.0,0.0,62,0.00,,,0.00,VWS V14.01,2013-03-04 09:20:00,
2013-03-04 03:25:00,29.1,18.8,30.16,WNW,291,0.0,0.0,65,0.00,,,0.00,VWS V14.01,2013-03-04 09:25:00,
2013-03-04 03:30:00,29.2,18.5,30.16,WNW,291,0.0,0.0,64,0.00,,,0.00,VWS V14.01,2013-03-04 09:30:00,
2013-03-04 03:35:00,29.2,19.3,30.16,WNW,291,0.0,0.0,66,0.00,,,0.00,VWS V14.01,2013-03-04 09:35:00,
2013-03-04 03:40:00,29.2,18.5,30.16,WNW,291,0.0,0.0,64,0.00,,,0.00,VWS V14.01,2013-03-04 09:40:00,
2013-03-04 03:45:00,29.2,18.9,30.16,WNW,291,0.0,0.0,65,0.00,,,0.00,VWS V14.01,2013-03-04 09:45:00,
2013-03-04 03:50:00,29.2,20.0,30.16,WNW,291,0.0,0.0,68,0.00,,,0.00,VWS V14.01,2013-03-04 09:50:00,
2013-03-04 03:55:00,29.2,19.6,30.16,WNW,291,0.0,0.0,67,0.00,,,0.00,VWS V14.01,2013-03-04 09:55:00,
2013-03-04 04:00:00,29.2,18.2,30.16,WNW,291,0.0,0.0,63,0.00,,,0.00,VWS V14.01,2013-03-04 10:00:00,
2013-03-04 04:05:00,29.2,17.1,30.16,WNW,291,0.0,0.0,60,0.00,,,0.00,VWS V14.01,2013-03-04 10:05:00,
2013-03-04 04:10:00,29.3,19.4,30.16,WNW,291,0.0,0.0,66,0.00,,,0.00,VWS V14.01,2013-03-04 10:10:00,
2013-03-04 04:15:00,29.4,18.7,30.16,WNW,291,0.0,0.0,64,0.00,,,0.00,VWS V14.01,2013-03-04 10:15:00,
2013-03-04 04:20:00,29.4,20.5,30.16,WNW,291,0.0,0.0,69,0.00,,,0.00,VWS V14.01,2013-03-04 10:20:00,
2013-03-04 04:25:00,29.4,20.8,30.16,WNW,291,0.0,0.0,70,0.00,,,0.00,VWS V14.01,2013-03-04 10:25:00,
2013-03-04 04:30:00,29.3,19.4,30.16,WNW,291,0.0,0.0,66,0.00,,,0.00,VWS V14.01,2013-03-04 10:30:00,
2013-03-04 04:35:00,29.2,19.3,30.16,WNW,291,0.0,0.0,66,0.00,,,0.00,VWS V14.01,2013-03-04 10:35:00,
2013-03-04 04:40:00,29.1,19.5,30.17,WNW,291,0.0,0.0,67,0.00,,,0.00,VWS V14.01,2013-03-04 10:40:00,
2013-03-04 04:45:00,29.0,19.8,30.17,WNW,291,0.0,0.0,68,0.00,,,0.00,VWS V14.01,2013-03-04 10:45:00,
2013-03-04 04:50:00,28.8,19.6,30.17,WNW,291,0.0,0.0,68,0.00,,,0.00,VWS V14.01,2013-03-04 10:50:00,
2013-03-04 04:55:00,28.7,18.8,30.17,WNW,291,0.0,0.0,66,0.00,,,0.00,VWS V14.01,2013-03-04 10:55:00,
2013-03-04 05:00:00,28.7,19.5,30.17,WNW,291,0.0,0.0,68,0.00,,,0.00,VWS V14.01,2013-03-04 11:00:00,
2013-03-04 05:05:00,28.6,19.0,30.17,WNW,291,0.0,0.0,67,0.00,,,0.00,VWS V14.01,2013-03-04 11:05:00,
2013-03-04 05:10:00,28.5,20.0,30.18,WNW,291,0.0,0.0,70,0.00,,,0.00,VWS V14.01,2013-03-04 11:10:00,
2013-03-04 05:15:00,28.6,20.1,30.18,WNW,291,0.0,0.0,70,0.00,,,0.00,VWS V14.01,2013-03-04 11:15:00,
2013-03-04 05:20:00,28.7,19.8,30.18,WNW,291,0.0,0.0,69,0.00,,,0.00,VWS V14.01,2013-03-04 11:20:00,
2013-03-04 05:25:00,28.8,19.6,30.18,WNW,291,0.0,0.0,68,0.00,,,0.00,VWS V14.01,2013-03-04 11:25:00,
2013-03-04 05:30:00,29.0,19.4,30.17,WNW,291,0.0,0.0,67,0.00,,,0.00,VWS V14.01,2013-03-04 11:30:00,
2013-03-04 05:35:00,29.1,19.5,30.17,WNW,291,0.0,0.0,67,0.00,,,0.00,VWS V14.01,2013-03-04 11:35:00,
2013-03-04 05:40:00,29.2,20.0,30.17,WNW,291,0.0,0.0,68,0.00,,,0.00,VWS V14.01,2013-03-04 11:40:00,
2013-03-04 05:45:00,29.3,20.7,30.17,WNW,291,0.0,0.0,70,0.00,,,0.00,VWS V14.01,2013-03-04 11:45:00,
2013-03-04 05:50:00,29.3,20.1,30.17,WNW,291,0.0,0.0,68,0.00,,,0.00,VWS V14.01,2013-03-04 11:50:00,
2013-03-04 05:55:00,29.3,20.4,30.17,WNW,291,0.0,0.0,69,0.00,,,0.00,VWS V14.01,2013-03-04 11:55:00,
2013-03-04 06:00:00,29.2,20.3,30.17,WNW,291,0.0,0.0,69,0.00,,,0.00,VWS V14.01,2013-03-04 12:00:00,
2013-03-04 06:05:00,29.1,20.2,30.17,WNW,291,0.0,0.0,69,0.00,,,0.00,VWS V14.01,2013-03-04 12:05:00,
2013-03-04 06:10:00,29.0,21.1,30.17,WNW,291,0.0,0.0,72,0.00,,,0.00,VWS V14.01,2013-03-04 12:10:00,
2013-03-04 06:15:00,28.8,20.3,30.17,WNW,291,0.0,0.0,70,0.00,,,0.00,VWS V14.01,2013-03-04 12:15:00,
2013-03-04 06:20:00,28.8,19.9,30.18,WNW,291,0.0,0.0,69,0.00,,,0.00,VWS V14.01,2013-03-04 12:20:00,
2013-03-04 06:25:00,28.7,19.5,30.17,WNW,291,0.0,0.0,68,0.00,,,0.00,VWS V14.01,2013-03-04 12:25:00,
2013-03-04 06:30:00,28.8,18.9,30.17,WNW,291,0.0,0.0,66,0.00,,,0.00,VWS V14.01,2013-03-04 12:30:00,
2013-03-04 06:35:00,28.9,19.7,30.18,WNW,291,0.0,0.0,68,0.00,,,0.00,VWS V14.01,2013-03-04 12:35:00,
2013-03-04 06:40:00,29.0,19.4,30.17,WNW,291,0.0,0.0,67,0.00,,,0.00,VWS V14.01,2013-03-04 12:40:00,
2013-03-04 06:45:00,29.1,19.9,30.17,WNW,291,0.0,0.0,68,0.00,,,0.00,VWS V14.01,2013-03-04 12:45:00,
2013-03-04 06:50:00,29.2,18.9,30.17,WNW,291,0.0,0.0,65,0.00,,,0.00,VWS V14.01,2013-03-04 12:50:00,
2013-03-04 06:55:00,29.3,19.4,30.17,WNW,291,0.0,0.0,66,0.00,,,0.00,VWS V14.01,2013-03-04 12:55:00,
2013-03-04 07:00:00,29.5,19.2,30.17,WNW,291,0.0,0.0,65,0.00,,,0.00,VWS V14.01,2013-03-04 13:00:00,
2013-03-04 07:05:00,29.8,19.5,30.18,WNW,291,0.0,1.0,65,0.00,,,0.00,VWS V14.01,2013-03-04 13:05:00,
2013-03-04 07:10:00,30.2,18.8,30.18,WNW,298,0.0,1.0,62,0.00,,,0.00,VWS V14.01,2013-03-04 13:10:00,
2013-03-04 07:15:00,30.6,18.8,30.18,WNW,298,0.0,1.0,61,0.00,,,0.00,VWS V14.01,2013-03-04 13:15:00,
2013-03-04 07:20:00,30.8,19.0,30.18,SSW,192,0.0,2.0,61,0.00,,,0.00,VWS V14.01,2013-03-04 13:20:00,
2013-03-04 07:25:00,30.9,19.4,30.18,SSW,192,0.0,2.0,62,0.00,,,0.00,VWS V14.01,2013-03-04 13:25:00,
2013-03-04 07:30:00,31.0,19.1,30.18,SSW,192,0.0,2.0,61,0.00,,,0.00,VWS V14.01,2013-03-04 13:30:00,
2013-03-04 07:35:00,31.3,19.0,30.19,South,178,0.0,4.0,60,0.00,,,0.00,VWS V14.01,2013-03-04 13:35:00,
2013-03-04 07:40:00,31.8,19.1,30.19,South,173,0.0,4.0,59,0.00,,,0.00,VWS V14.01,2013-03-04 13:40:00,
2013-03-04 07:45:00,32.2,19.1,30.18,SSE,154,0.0,4.0,58,0.00,,,0.00,VWS V14.01,2013-03-04 13:45:00,
2013-03-04 07:50:00,32.4,19.7,30.19,SE,146,3.0,4.0,59,0.00,,,0.00,VWS V14.01,2013-03-04 13:50:00,
2013-03-04 07:55:00,32.5,20.6,30.18,SSE,156,0.0,4.0,61,0.00,,,0.00,VWS V14.01,2013-03-04 13:55:00,
2013-03-04 08:00:00,32.9,20.9,30.18,SSE,156,0.0,4.0,61,0.00,,,0.00,VWS V14.01,2013-03-04 14:00:00,
2013-03-04 08:05:00,33.4,20.6,30.18,SSE,156,0.0,0.0,59,0.00,,,0.00,VWS V14.01,2013-03-04 14:05:00,
2013-03-04 08:10:00,33.5,20.3,30.19,South,172,0.0,5.0,58,0.00,,,0.00,VWS V14.01,2013-03-04 14:10:00,
2013-03-04 08:15:00,33.4,20.2,30.19,South,186,1.0,5.0,58,0.00,,,0.00,VWS V14.01,2013-03-04 14:15:00,
2013-03-04 08:20:00,33.7,20.5,30.19,South,182,0.0,5.0,58,0.00,,,0.00,VWS V14.01,2013-03-04 14:20:00,
2013-03-04 08:25:00,34.1,20.5,30.19,South,173,0.0,5.0,57,0.00,,,0.00,VWS V14.01,2013-03-04 14:25:00,
2013-03-04 08:30:00,34.4,20.3,30.19,South,169,0.0,5.0,56,0.00,,,0.00,VWS V14.01,2013-03-04 14:30:00,
2013-03-04 08:35:00,34.4,20.8,30.18,SSE,167,2.0,3.0,57,0.00,,,0.00,VWS V14.01,2013-03-04 14:35:00,
2013-03-04 08:40:00,34.4,22.0,30.18,SSE,163,0.0,3.0,60,0.00,,,0.00,VWS V14.01,2013-03-04 14:40:00,
2013-03-04 08:45:00,34.8,21.5,30.19,South,169,0.0,5.0,58,0.00,,,0.00,VWS V14.01,2013-03-04 14:45:00,
2013-03-04 08:50:00,35.2,22.3,30.19,South,179,3.0,5.0,59,0.00,,,0.00,VWS V14.01,2013-03-04 14:50:00,
2013-03-04 08:55:00,35.4,22.5,30.19,SSE,160,5.0,6.0,59,0.00,,,0.00,VWS V14.01,2013-03-04 14:55:00,
2013-03-04 09:00:00,35.9,22.6,30.18,SSE,163,0.0,6.0,58,0.00,,,0.00,VWS V14.01,2013-03-04 15:00:00,
2013-03-04 09:05:00,36.2,23.3,30.19,SE,138,0.0,3.0,59,0.00,,,0.00,VWS V14.01,2013-03-04 15:05:00,
2013-03-04 09:10:00,36.4,22.6,30.19,SSE,167,0.0,4.0,57,0.00,,,0.00,VWS V14.01,2013-03-04 15:10:00,
2013-03-04 09:15:00,36.5,22.7,30.19,SSE,163,0.0,5.0,57,0.01,,,0.01,VWS V14.01,2013-03-04 15:15:00,
2013-03-04 09:20:00,36.8,22.6,30.18,SSE,158,0.0,5.0,56,0.01,,,0.01,VWS V14.01,2013-03-04 15:20:00,
2013-03-04 09:25:00,37.0,23.2,30.18,South,178,0.0,6.0,57,0.01,,,0.01,VWS V14.01,2013-03-04 15:25:00,
2013-03-04 09:30:00,37.3,22.6,30.18,SSE,155,2.0,6.0,55,0.01,,,0.01,VWS V14.01,2013-03-04 15:30:00,
2013-03-04 09:35:00,37.5,23.7,30.17,South,171,0.0,3.0,57,0.01,,,0.01,VWS V14.01,2013-03-04 15:35:00,
2013-03-04 09:40:00,37.8,23.1,30.18,South,169,3.0,4.0,55,0.01,,,0.01,VWS V14.01,2013-03-04 15:40:00,
2013-03-04 09:45:00,37.9,23.2,30.17,SSE,168,3.0,6.0,55,0.01,,,0.01,VWS V14.01,2013-03-04 15:45:00,
2013-03-04 09:50:00,38.1,22.9,30.18,South,180,3.0,6.0,54,0.01,,,0.01,VWS V14.01,2013-03-04 15:50:00,
2013-03-04 09:55:00,38.2,23.9,30.17,South,172,2.0,7.0,56,0.02,,,0.02,VWS V14.01,2013-03-04 15:55:00,
2013-03-04 10:00:00,38.3,23.1,30.17,SSE,161,3.0,7.0,54,0.02,,,0.02,VWS V14.01,2013-03-04 16:00:00,
2013-03-04 10:05:00,38.4,23.7,30.16,South,186,5.0,9.0,55,0.02,,,0.02,VWS V14.01,2013-03-04 16:05:00,
2013-03-04 10:10:00,38.4,23.7,30.17,South,174,3.0,9.0,55,0.02,,,0.02,VWS V14.01,2013-03-04 16:10:00,
2013-03-04 10:15:00,38.8,24.0,30.16,SSE,167,2.0,9.0,55,0.02,,,0.02,VWS V14.01,2013-03-04 16:15:00,
2013-03-04 10:20:00,39.4,24.6,30.16,SSE,149,0.0,9.0,55,0.02,,,0.02,VWS V14.01,2013-03-04 16:20:00,
2013-03-04 10:25:00,40.0,24.7,30.16,South,175,5.0,9.0,54,0.02,,,0.02,VWS V14.01,2013-03-04 16:25:00,
2013-03-04 10:30:00,39.7,23.1,30.16,South,179,5.0,9.0,51,0.02,,,0.02,VWS V14.01,2013-03-04 16:30:00,
2013-03-04 10:35:00,39.6,23.0,30.17,SE,134,5.0,9.0,51,0.02,,,0.03,VWS V14.01,2013-03-04 16:35:00,
2013-03-04 10:40:00,39.7,23.5,30.16,South,182,0.0,9.0,52,0.02,,,0.03,VWS V14.01,2013-03-04 16:40:00,
2013-03-04 10:45:00,40.0,22.9,30.16,ESE,118,2.0,9.0,50,0.02,,,0.03,VWS V14.01,2013-03-04 16:45:00,
2013-03-04 10:50:00,40.0,23.4,30.16,SSE,152,2.0,9.0,51,0.02,,,0.03,VWS V14.01,2013-03-04 16:50:00,
2013-03-04 10:55:00,40.2,24.5,30.16,South,188,4.0,9.0,53,0.02,,,0.03,VWS V14.01,2013-03-04 16:55:00,
2013-03-04 11:00:00,40.4,24.2,30.15,South,180,3.0,10.0,52,0.02,,,0.03,VWS V14.01,2013-03-04 17:00:00,
2013-03-04 11:05:00,40.7,24.5,30.15,ESE,113,2.0,5.0,52,0.01,,,0.03,VWS V14.01,2013-03-04 17:05:00,
2013-03-04 11:10:00,40.9,24.2,30.15,South,179,2.0,5.0,51,0.01,,,0.03,VWS V14.01,2013-03-04 17:10:00,
2013-03-04 11:15:00,41.0,24.3,30.15,South,175,0.0,6.0,51,0.01,,,0.03,VWS V14.01,2013-03-04 17:15:00,
2013-03-04 11:20:00,41.0,23.8,30.15,South,188,5.0,7.0,50,0.01,,,0.03,VWS V14.01,2013-03-04 17:20:00,
2013-03-04 11:25:00,41.1,23.9,30.14,SE,141,2.0,7.0,50,0.01,,,0.03,VWS V14.01,2013-03-04 17:25:00,
2013-03-04 11:30:00,41.1,23.9,30.14,ESE,110,3.0,7.0,50,0.01,,,0.03,VWS V14.01,2013-03-04 17:30:00,
2013-03-04 11:35:00,41.1,23.9,30.14,SSE,164,5.0,7.0,50,0.00,,,0.03,VWS V14.01,2013-03-04 17:35:00,
2013-03-04 11:40:00,41.4,23.7,30.14,ESE,118,0.0,7.0,49,0.00,,,0.03,VWS V14.01,2013-03-04 17:40:00,
2013-03-04 11:45:00,41.7,24.5,30.13,SSE,164,3.0,7.0,50,0.00,,,0.03,VWS V14.01,2013-03-04 17:45:00,
2013-03-04 11:50:00,42.1,23.8,30.13,SSE,148,4.0,7.0,48,0.00,,,0.03,VWS V14.01,2013-03-04 17:50:00,
2013-03-04 11:55:00,42.3,24.0,30.12,SSE,162,1.0,9.0,48,0.00,,,0.03,VWS V14.01,2013-03-04 17:55:00,
2013-03-04 12:00:00,42.5,24.7,30.12,SSE,167,2.0,9.0,49,0.00,,,0.03,VWS V14.01,2013-03-04 18:00:00,
2013-03-04 12:05:00,43.1,24.3,30.12,SSW,213,4.0,11.0,47,0.00,,,0.03,VWS V14.01,2013-03-04 18:05:00,
2013-03-04 12:10:00,43.2,25.4,30.11,South,169,3.0,12.0,49,0.00,,,0.03,VWS V14.01,2013-03-04 18:10:00,
2013-03-04 12:15:00,43.3,23.9,30.11,SE,136,2.0,12.0,46,0.00,,,0.03,VWS V14.01,2013-03-04 18:15:00,
2013-03-04 12:20:00,43.4,24.0,30.11,South,172,4.0,12.0,46,0.00,,,0.03,VWS V14.01,2013-03-04 18:20:00,
2013-03-04 12:25:00,43.4,24.5,30.10,SSE,161,2.0,12.0,47,0.00,,,0.03,VWS V14.01,2013-03-04 18:25:00,
2013-03-04 12:29:00,43.4,24.5,30.10,SSE,149,3.0,12.0,47,0.00,,,0.03,VWS V14.01,2013-03-04 18:29:00,
2013-03-04 12:30:00,43.5,25.6,30.10,SSE,167,2.0,12.0,49,0.00,,,0.03,VWS V14.01,2013-03-04 18:30:00,
2013-03-04 12:34:00,43.6,25.2,30.10,East,99,3.0,10.0,48,0.00,,,0.03,VWS V14.01,2013-03-04 18:34:00,
2013-03-04 12:39:00,43.7,25.3,30.10,SSE,157,4.0,10.0,48,0.00,,,0.03,VWS V14.01,2013-03-04 18:39:00,
2013-03-04 12:44:00,43.7,25.8,30.10,South,190,4.0,12.0,49,0.00,,,0.03,VWS V14.01,2013-03-04 18:44:00,
2013-03-04 12:49:00,43.8,24.9,30.09,SSE,149,3.0,12.0,47,0.00,,,0.03,VWS V14.01,2013-03-04 18:49:00,
2013-03-04 12:55:00,44.0,25.1,30.09,South,170,4.0,12.0,47,0.00,,,0.03,VWS V14.01,2013-03-04 18:55:00,
2013-03-04 13:00:00,44.2,26.3,30.09,SE,134,3.0,12.0,49,0.00,,,0.03,VWS V14.01,2013-03-04 19:00:00,
2013-03-04 13:05:00,44.6,25.6,30.08,SE,140,2.0,10.0,47,0.00,,,0.03,VWS V14.01,2013-03-04 19:05:00,
2013-03-04 13:10:00,44.9,26.4,30.08,South,170,3.0,10.0,48,0.00,,,0.03,VWS V14.01,2013-03-04 19:10:00,
2013-03-04 13:15:00,45.1,26.6,30.08,SE,132,0.0,10.0,48,0.00,,,0.03,VWS V14.01,2013-03-04 19:15:00,
2013-03-04 13:20:00,45.3,26.3,30.08,South,179,7.0,11.0,47,0.00,,,0.03,VWS V14.01,2013-03-04 19:20:00,
2013-03-04 13:25:00,45.4,26.9,30.07,SE,135,3.0,11.0,48,0.00,,,0.03,VWS V14.01,2013-03-04 19:25:00,
2013-03-04 13:30:00,45.4,26.4,30.07,SSE,157,3.0,11.0,47,0.00,,,0.03,VWS V14.01,2013-03-04 19:30:00,
2013-03-04 13:35:00,45.4,27.4,30.07,South,173,3.0,10.0,49,0.00,,,0.03,VWS V14.01,2013-03-04 19:35:00,
2013-03-04 13:40:00,45.5,27.0,30.07,South,187,5.0,11.0,48,0.00,,,0.03,VWS V14.01,2013-03-04 19:40:00,
2013-03-04 13:45:00,45.9,27.3,30.06,SSE,150,4.0,11.0,48,0.00,,,0.03,VWS V14.01,2013-03-04 19:45:00,
2013-03-04 13:50:00,46.1,28.0,30.06,ESE,121,0.0,11.0,49,0.00,,,0.03,VWS V14.01,2013-03-04 19:50:00,
2013-03-04 13:55:00,46.4,27.8,30.06,SSE,148,1.0,11.0,48,0.00,,,0.03,VWS V14.01,2013-03-04 19:55:00,
2013-03-04 14:00:00,46.6,27.5,30.06,South,171,7.0,11.0,47,0.00,,,0.03,VWS V14.01,2013-03-04 20:00:00,
2013-03-04 14:05:00,46.6,26.9,30.06,SSE,150,4.0,7.0,46,0.00,,,0.03,VWS V14.01,2013-03-04 20:05:00,
2013-03-04 14:10:00,47.0,28.3,30.06,SE,140,1.0,10.0,48,0.00,,,0.03,VWS V14.01,2013-03-04 20:10:00,
2013-03-04 14:15:00,48.0,28.8,30.06,South,171,3.0,12.0,47,0.00,,,0.03,VWS V14.01,2013-03-04 20:15:00,
2013-03-04 14:20:00,48.7,28.9,30.06,SSE,163,4.0,12.0,46,0.00,,,0.03,VWS V14.01,2013-03-04 20:20:00,
2013-03-04 14:25:00,49.0,28.6,30.06,SSE,168,5.0,12.0,45,0.00,,,0.03,VWS V14.01,2013-03-04 20:25:00,
2013-03-04 14:30:00,49.1,28.7,30.06,South,179,4.0,12.0,45,0.00,,,0.03,VWS V14.01,2013-03-04 20:30:00,
2013-03-04 14:35:00,48.7,28.3,30.05,SE,137,4.0,6.0,45,0.00,,,0.03,VWS V14.01,2013-03-04 20:35:00,
2013-03-04 14:40:00,48.4,28.0,30.05,SSE,161,3.0,6.0,45,0.00,,,0.03,VWS V14.01,2013-03-04 20:40:00,
2013-03-04 14:45:00,48.5,28.7,30.04,South,175,0.0,6.0,46,0.00,,,0.03,VWS V14.01,2013-03-04 20:45:00,
2013-03-04 14:50:00,48.6,28.8,30.05,SE,133,1.0,12.0,46,0.00,,,0.03,VWS V14.01,2013-03-04 20:50:00,
2013-03-04 14:55:00,48.7,28.3,30.04,SE,128,2.0,12.0,45,0.00,,,0.03,VWS V14.01,2013-03-04 20:55:00,
2013-03-04 15:00:00,48.5,28.7,30.03,ESE,117,9.0,12.0,46,0.00,,,0.03,VWS V14.01,2013-03-04 21:00:00,
2013-03-04 15:05:00,48.4,28.6,30.03,SSE,157,3.0,10.0,46,0.00,,,0.03,VWS V14.01,2013-03-04 21:05:00,
2013-03-04 15:10:00,48.2,28.4,30.03,SE,132,5.0,10.0,46,0.00,,,0.03,VWS V14.01,2013-03-04 21:10:00,
2013-03-04 15:15:00,48.2,28.4,30.03,SSE,159,3.0,12.0,46,0.00,,,0.03,VWS V14.01,2013-03-04 21:15:00,
2013-03-04 15:20:00,48.3,29.0,30.02,South,178,6.0,12.0,47,0.00,,,0.03,VWS V14.01,2013-03-04 21:20:00,
2013-03-04 15:25:00,48.7,29.4,30.03,South,175,2.0,12.0,47,0.00,,,0.03,VWS V14.01,2013-03-04 21:25:00,
2013-03-04 15:30:00,48.8,28.4,30.03,ESE,114,3.0,12.0,45,0.00,,,0.03,VWS V14.01,2013-03-04 21:30:00,
2013-03-04 15:35:00,48.9,29.0,30.02,SE,132,0.0,3.0,46,0.00,,,0.03,VWS V14.01,2013-03-04 21:35:00,
2013-03-04 15:40:00,48.9,29.0,30.02,SSE,168,0.0,6.0,46,0.00,,,0.03,VWS V14.01,2013-03-04 21:40:00,
2013-03-04 15:45:00,49.0,29.1,30.01,SSE,161,4.0,9.0,46,0.00,,,0.03,VWS V14.01,2013-03-04 21:45:00,
2013-03-04 15:50:00,49.0,29.1,30.02,SSE,163,2.0,11.0,46,0.00,,,0.03,VWS V14.01,2013-03-04 21:50:00,
2013-03-04 15:55:00,49.0,29.1,30.01,SE,130,3.0,11.0,46,0.01,,,0.04,VWS V14.01,2013-03-04 21:55:00,
2013-03-04 16:00:00,48.9,29.6,30.01,SE,129,3.0,11.0,47,0.01,,,0.04,VWS V14.01,2013-03-04 22:00:00,
2013-03-04 16:05:00,49.0,29.1,30.01,SSE,151,7.0,11.0,46,0.01,,,0.04,VWS V14.01,2013-03-04 22:05:00,
2013-03-04 16:10:00,48.8,29.5,30.01,SSE,168,4.0,11.0,47,0.01,,,0.04,VWS V14.01,2013-03-04 22:10:00,
2013-03-04 16:15:00,48.6,29.3,30.00,South,184,0.0,11.0,47,0.01,,,0.04,VWS V14.01,2013-03-04 22:15:00,
2013-03-04 16:20:00,48.6,29.8,30.01,South,180,7.0,11.0,48,0.01,,,0.04,VWS V14.01,2013-03-04 22:20:00,
2013-03-04 16:25:00,48.5,29.2,30.01,South,182,5.0,11.0,47,0.01,,,0.04,VWS V14.01,2013-03-04 22:25:00,
2013-03-04 16:30:00,48.3,29.0,30.01,SSW,203,5.0,11.0,47,0.01,,,0.04,VWS V14.01,2013-03-04 22:30:00,
2013-03-04 16:35:00,48.2,29.5,30.00,SE,141,2.0,9.0,48,0.01,,,0.04,VWS V14.01,2013-03-04 22:35:00,
2013-03-04 16:40:00,47.9,29.2,30.00,SSE,148,1.0,11.0,48,0.01,,,0.04,VWS V14.01,2013-03-04 22:40:00,
2013-03-04 16:45:00,47.8,29.6,30.00,SSE,165,0.0,11.0,49,0.01,,,0.04,VWS V14.01,2013-03-04 22:45:00,
2013-03-04 16:50:00,47.7,29.0,30.00,SE,141,3.0,11.0,48,0.01,,,0.04,VWS V14.01,2013-03-04 22:50:00,
2013-03-04 16:55:00,47.6,28.9,29.99,SE,132,2.0,11.0,48,0.01,,,0.04,VWS V14.01,2013-03-04 22:55:00,
2013-03-04 17:00:00,47.6,28.9,29.99,SSE,150,3.0,11.0,48,0.01,,,0.04,VWS V14.01,2013-03-04 23:00:00,
2013-03-04 17:05:00,47.5,29.3,29.99,SSE,148,3.0,7.0,49,0.00,,,0.04,VWS V14.01,2013-03-04 23:05:00,
2013-03-04 17:10:00,47.5,29.8,29.99,SE,125,4.0,13.0,50,0.00,,,0.04,VWS V14.01,2013-03-04 23:10:00,
2013-03-04 17:15:00,47.4,29.2,29.98,SE,142,3.0,13.0,49,0.00,,,0.04,VWS V14.01,2013-03-04 23:15:00,
2013-03-04 17:20:00,47.4,29.2,29.98,SE,130,3.0,14.0,49,0.00,,,0.04,VWS V14.01,2013-03-04 23:20:00,
2013-03-04 17:25:00,47.3,29.6,29.97,SSE,167,4.0,14.0,50,0.00,,,0.04,VWS V14.01,2013-03-04 23:25:00,
2013-03-04 17:30:00,47.3,29.6,29.98,SSE,147,0.0,14.0,50,0.00,,,0.04,VWS V14.01,2013-03-04 23:30:00,
2013-03-04 17:35:00,47.2,29.5,29.97,SE,127,6.0,6.0,50,0.00,,,0.04,VWS V14.01,2013-03-04 23:35:00,
2013-03-04 17:40:00,47.2,29.0,29.97,SSW,205,7.0,9.0,49,0.00,,,0.04,VWS V14.01,2013-03-04 23:40:00,
2013-03-04 17:45:00,47.0,29.3,29.97,South,172,4.0,10.0,50,0.00,,,0.04,VWS V14.01,2013-03-04 23:45:00,
2013-03-04 17:50:00,47.0,29.3,29.97,SE,126,1.0,10.0,50,0.00,,,0.04,VWS V14.01,2013-03-04 23:50:00,
2013-03-04 17:55:00,47.0,28.9,29.97,SSE,168,6.0,10.0,49,0.00,,,0.04,VWS V14.01,2013-03-04 23:55:00,
2013-03-04 18:00:00,47.1,28.9,29.97,SSE,159,4.0,10.0,49,0.00,,,0.04,VWS V14.01,2013-03-05 00:00:00,
2013-03-04 18:05:00,47.2,29.0,29.98,SSE,163,4.0,10.0,49,0.00,,,0.04,VWS V14.01,2013-03-05 00:05:00,
2013-03-04 18:10:00,47.1,28.9,29.98,South,190,9.0,11.0,49,0.00,,,0.04,VWS V14.01,2013-03-05 00:10:00,
2013-03-04 18:15:00,47.0,29.3,29.98,South,170,0.0,11.0,50,0.00,,,0.04,VWS V14.01,2013-03-05 00:15:00,
2013-03-04 18:20:00,46.9,29.2,29.98,ESE,115,0.0,11.0,50,0.00,,,0.04,VWS V14.01,2013-03-05 00:20:00,
2013-03-04 18:25:00,46.8,29.6,29.99,SSE,161,5.0,11.0,51,0.00,,,0.04,VWS V14.01,2013-03-05 00:25:00,
2013-03-04 18:30:00,46.7,29.1,29.98,SSE,148,3.0,11.0,50,0.00,,,0.04,VWS V14.01,2013-03-05 00:30:00,
2013-03-04 18:35:00,46.7,29.5,29.98,SE,140,0.0,3.0,51,0.00,,,0.04,VWS V14.01,2013-03-05 00:35:00,
2013-03-04 18:40:00,46.8,29.2,29.98,SSE,150,3.0,11.0,50,0.00,,,0.04,VWS V14.01,2013-03-05 00:40:00,
2013-03-04 18:45:00,46.9,28.8,29.98,South,173,4.0,11.0,49,0.00,,,0.04,VWS V14.01,2013-03-05 00:45:00,
2013-03-04 18:50:00,47.0,28.9,29.98,SE,139,3.0,11.0,49,0.00,,,0.04,VWS V14.01,2013-03-05 00:50:00,
2013-03-04 18:55:00,46.9,29.2,29.98,SE,143,4.0,11.0,50,0.00,,,0.04,VWS V14.01,2013-03-05 00:55:00,
2013-03-04 19:00:00,46.9,29.2,29.98,SE,138,0.0,11.0,50,0.00,,,0.04,VWS V14.01,2013-03-05 01:00:00,
2013-03-04 19:05:00,46.8,29.2,29.98,South,169,4.0,6.0,50,0.00,,,0.04,VWS V14.01,2013-03-05 01:05:00,
2013-03-04 19:10:00,46.8,29.2,29.98,SE,146,2.0,11.0,50,0.00,,,0.04,VWS V14.01,2013-03-05 01:10:00,
2013-03-04 19:15:00,46.8,29.2,29.98,SE,126,3.0,11.0,50,0.00,,,0.04,VWS V14.01,2013-03-05 01:15:00,
2013-03-04 19:20:00,46.8,29.6,29.98,SSE,163,0.0,11.0,51,0.00,,,0.04,VWS V14.01,2013-03-05 01:20:00,
2013-03-04 19:25:00,46.7,29.5,29.98,SE,128,0.0,11.0,51,0.00,,,0.04,VWS V14.01,2013-03-05 01:25:00,
2013-03-04 19:30:00,46.6,29.5,29.99,SSE,149,0.0,11.0,51,0.00,,,0.04,VWS V14.01,2013-03-05 01:30:00,
2013-03-04 19:35:00,46.6,29.5,30.00,South,180,0.0,5.0,51,0.00,,,0.04,VWS V14.01,2013-03-05 01:35:00,
2013-03-04 19:40:00,46.7,29.5,30.01,South,176,5.0,9.0,51,0.00,,,0.04,VWS V14.01,2013-03-05 01:40:00,
2013-03-04 20:00:00,46.9,29.7,30.01,South,180,3.0,10.0,51,0.00,,,0.04,VWS V14.01,2013-03-05 02:00:00,
2013-03-04 20:30:00,47.1,29.9,30.01,SSE,158,2.0,9.0,51,0.00,,,0.04,VWS V14.01,2013-03-05 02:30:00,
2013-03-04 21:00:00,47.5,30.3,30.01,SSE,158,1.0,7.0,51,0.00,,,0.04,VWS V14.01,2013-03-05 03:00:00,
2013-03-04 21:30:00,47.8,30.6,30.02,SSE,158,2.0,9.0,51,0.00,,,0.04,VWS V14.01,2013-03-05 03:30:00,
2013-03-04 22:00:00,48.0,31.2,30.01,South,180,2.0,10.0,52,0.00,,,0.04,VWS V14.01,2013-03-05 04:00:00,
2013-03-04 22:30:00,48.1,31.3,30.00,South,180,5.0,15.0,52,0.00,,,0.04,VWS V14.01,2013-03-05 04:30:00,
2013-03-04 23:00:00,47.5,31.7,29.98,SSE,158,5.0,15.0,54,0.00,,,0.04,VWS V14.01,2013-03-05 05:00:00,
2013-03-04 23:30:00,47.7,32.3,29.98,South,180,3.0,13.0,55,0.00,,,0.04,VWS V14.01,2013-03-05 05:30:00,